Alexandria, LA

1:49 PM CDT on October 21, 2017 (GMT -0500)
Alexandria International

Weather History for KAEX - March, 2013

Change the Weather History Date:

Saturday, March 23, 2013

  Actual Average Record
Temperature  
Mean Temperature 66 °F 61 °F  
Max Temperature 73 °F 73 °F 91 °F (1907)
Min Temperature 58 °F 49 °F 27 °F (1915)
Degree Days  
Heating Degree Days 0 6  
Month to date heating degree days 217 175  
Since 1 July heating degree days 1650 1840  
Cooling Degree Days 1 1  
Month to date cooling degree days 15 23  
Year to date cooling degree days 33 40  
Growing Degree Days 14 (Base 50)    
Moisture  
Dew Point 60 °F    
Average Humidity 83    
Maximum Humidity 93    
Minimum Humidity 73    
Precipitation  
Precipitation 0.01 in 0.14 in 2.00 in (1908)
Month to date precipitation 0.27 3.82  
Year to date precipitation 16.72 13.50  
Snow  
Snow 0.00 in - 0.00 in ()
Month to date snowfall 0.0  
Since 1 July snowfall 0.0  
Snow Depth 0.00 in    
Sea Level Pressure  
Sea Level Pressure 29.70 in    
Wind  
Wind Speed 4 mph (NNE)    
Max Wind Speed 16 mph    
Max Gust Speed 20 mph    
Visibility 9 miles    
Events Rain , Thunderstorm    
T = Trace of Precipitation, MM = Missing Value Source: NWS Daily Summary

Daily Weather History Graph

Daily Weather History Graph

Search for Another Location

Airport or City:

Trip Planner

Search our weather history database for the weather conditions in past years. The results will help you decide how hot, cold, wet, or windy it might be!

Date:

Astronomy

Mar. 23, 2013 Rise Set
Actual Time 7:09 AM CDT 7:23 PM CDT
Civil Twilight 6:45 AM CDT 7:48 PM CDT
Nautical Twilight 6:17 AM CDT 8:16 PM CDT
Astronomical Twilight 5:48 AM CDT 8:45 PM CDT
Moon 4:02 PM CDT (3/23) 4:33 AM CDT (3/23)
Length of Visible Light 13h 02m
Length of Day
12h 14m
Waxing Gibbous, 85% of the Moon is Illuminated
Mar 23
Waxing Gibbous
Mar 27
Full
Apr 2
Last Quarter
Apr 10
New
Apr 18
First Quarter

Hourly Weather History & Observations

Time (CDT) Temp. Dew Point Humidity Pressure Visibility Wind Dir Wind Speed Gust Speed Precip Events Conditions
12:06 AM 66.2 °F 62.6 °F 88% 29.77 in 9.0 mi SE 5.8 mph - N/A   Overcast
12:34 AM 66.2 °F 64.4 °F 94% 29.76 in 8.0 mi SE 4.6 mph - N/A   Mostly Cloudy
12:53 AM 66.0 °F 64.0 °F 93% 29.77 in 7.0 mi SE 5.8 mph - N/A   Overcast
1:53 AM 66.0 °F 64.9 °F 96% 29.77 in 7.0 mi Calm Calm - N/A   Overcast
2:11 AM 64.4 °F 62.6 °F 94% 29.76 in 7.0 mi NE 3.5 mph - N/A   Overcast
2:53 AM 64.9 °F 62.1 °F 90% 29.76 in 8.0 mi NNE 3.5 mph - N/A   Overcast
3:09 AM 64.4 °F 60.8 °F 88% 29.74 in 9.0 mi Calm Calm - N/A   Overcast
3:53 AM 62.1 °F 59.0 °F 90% 29.74 in 10.0 mi NNE 4.6 mph - N/A   Overcast
4:36 AM 62.6 °F 57.2 °F 82% 29.72 in 10.0 mi NNE 3.5 mph - N/A   Overcast
4:53 AM 62.1 °F 57.9 °F 86% 29.72 in 10.0 mi Calm Calm - N/A   Overcast
5:01 AM 62.6 °F 57.2 °F 82% 29.71 in 10.0 mi NE 3.5 mph - N/A   Overcast
5:35 AM 62.6 °F 59.0 °F 88% 29.73 in 10.0 mi NNE 3.5 mph - N/A   Overcast
5:43 AM 62.6 °F 59.0 °F 88% 29.73 in 10.0 mi North 3.5 mph - N/A   Overcast
5:53 AM 62.1 °F 59.0 °F 90% 29.74 in 9.0 mi NNW 3.5 mph - N/A   Overcast
6:53 AM 61.0 °F 57.9 °F 90% 29.75 in 9.0 mi Calm Calm - N/A   Overcast
7:19 AM 60.8 °F 57.2 °F 88% 29.74 in 9.0 mi NNE 3.5 mph - N/A   Overcast
7:53 AM 61.0 °F 57.9 °F 90% 29.77 in 8.0 mi NNE 4.6 mph - N/A   Overcast
8:53 AM 61.0 °F 57.0 °F 87% 29.81 in 9.0 mi Calm Calm - N/A   Overcast
9:53 AM 61.0 °F 57.9 °F 90% 29.81 in 8.0 mi NE 3.5 mph - N/A   Overcast
10:53 AM 62.1 °F 57.0 °F 84% 29.81 in 8.0 mi North 4.6 mph - N/A   Overcast
11:53 AM 63.0 °F 57.0 °F 81% 29.79 in 8.0 mi North 4.6 mph - N/A   Overcast
12:53 PM 64.9 °F 57.9 °F 78% 29.75 in 8.0 mi NE 5.8 mph - N/A   Overcast
1:53 PM 68.0 °F 60.1 °F 76% 29.70 in 9.0 mi NNE 3.5 mph - N/A   Overcast
2:38 PM 69.8 °F 62.6 °F 78% 29.66 in 9.0 mi East 5.8 mph - N/A   Mostly Cloudy
2:53 PM 71.1 °F 63.0 °F 75% 29.66 in 9.0 mi East 3.5 mph - N/A   Scattered Clouds
3:53 PM 72.0 °F 64.9 °F 78% 29.62 in 10.0 mi ESE 8.1 mph - N/A   Mostly Cloudy
4:53 PM 72.0 °F 64.0 °F 76% 29.60 in 10.0 mi East 4.6 mph - N/A   Overcast
5:53 PM 72.0 °F 64.0 °F 76% 29.59 in 10.0 mi Calm Calm - N/A   Overcast
6:06 PM 71.6 °F 64.4 °F 78% 29.58 in 9.0 mi East 3.5 mph - N/A   Overcast
6:53 PM 72.0 °F 64.9 °F 78% 29.59 in 9.0 mi North 4.6 mph - N/A   Overcast
7:53 PM 70.0 °F 64.0 °F 81% 29.60 in 10.0 mi NNW 3.5 mph - N/A   Overcast
8:08 PM 69.8 °F 64.4 °F 83% 29.59 in 10.0 mi NNW 4.6 mph - N/A Thunderstorm Overcast
8:23 PM 69.8 °F 64.4 °F 83% 29.59 in 10.0 mi NNW 10.4 mph - N/A   Overcast
8:53 PM 66.0 °F 62.1 °F 87% 29.62 in 10.0 mi NW 12.7 mph - 0.00 in Rain Light Rain
9:18 PM 64.4 °F 62.6 °F 94% 29.63 in 8.0 mi NW 9.2 mph - 0.00 in   Overcast
9:53 PM 61.0 °F 57.9 °F 90% 29.66 in 8.0 mi North 15.0 mph - 0.01 in Thunderstorm Overcast
9:57 PM 60.8 °F 57.2 °F 88% 29.65 in 8.0 mi NNW 10.4 mph 19.6 mph N/A   Overcast
10:15 PM 60.8 °F 57.2 °F 88% 29.66 in 8.0 mi North 12.7 mph - N/A   Overcast
10:26 PM 60.8 °F 57.2 °F 88% 29.67 in 8.0 mi NNW 6.9 mph - N/A   Overcast
10:53 PM 60.1 °F 55.9 °F 86% 29.68 in 10.0 mi NNW 8.1 mph - N/A   Overcast
11:16 PM 59.0 °F 55.4 °F 88% 29.68 in 10.0 mi North 10.4 mph - N/A   Overcast
11:51 PM 57.2 °F 55.4 °F 94% 29.68 in 10.0 mi NNW 5.8 mph - N/A   Overcast
11:53 PM 57.9 °F 55.0 °F 90% 29.69 in 10.0 mi Variable 4.6 mph - N/A   Overcast